Flag for U.S.A. Weather past 2 weeks in Oxnard, California, U.S.A.

Now
63 °F

Fog.


Feels Like: 63 °F
Forecast: 61 / 70 °F
Wind: 6 mph from Northeast

Location: Oxnard Airport

Current Time: Oct 20, 2014 at 4:49:27 AM

Latest Report: Oct 20, 2014 at 3:51 AM


Visibility: 6 mi

Pressure: 29.88 "Hg

Humidity: 90%

Dew point: 60 °F

Location of OxnardLocation

Historic Weather in Oxnard — Graph

°F

Oxnard temperature yesterday

Maximum temperature yesterday: 73 °F (at 2:51 PM)
Minimum temperature yesterday: 57 °F (at 6:51 AM)
Average temperature yesterday: 66 °F

Past Weeks' High & Low Weather Summary

 TemperatureHumidityPressure
High83 °F (Oct 5, 12:51 PM)100% (Oct 7, 7:51 AM)30.02 "Hg (Oct 7, 7:51 AM)
Low57 °F (Oct 8, 6:51 AM)27% (Oct 5, 9:51 AM)29.80 "Hg (Oct 8, 5:51 PM)
Average67 °F74%29.91 "Hg
* Reported Oct 5 3:51 AM — Oct 20 3:51 AM, Oxnard, Weather by CustomWeather, © 2014

Note: Actual official high and low records may vary slightly from our data, if they occured in-between our weather recording intervals... More about our weather records

Advertising

Oxnard weather history for previous 24 hours

 ConditionsComfort  
Time TempWeatherWind HumidityBarometerVisibility
3:51 AM
Oct 20
63 °FFog.6 mph90%29.88 "Hg6 mi
2:51 AM65 °FOvercast.5 mph87%29.88 "Hg8 mi
1:51 AM65 °FOvercast.No wind85%29.88 "Hg9 mi
12:51 AM64 °FPassing clouds.No wind87%29.88 "Hg9 mi
11:51 PM
Oct 19
66 °FPassing clouds.3 mph84%29.88 "Hg10 mi
10:59 PM67 °FPassing clouds.3 mph81%29.88 "Hg10 mi
9:51 PM67 °FOvercast.3 mph85%29.87 "Hg10 mi
7:51 PM67 °FPassing clouds.7 mph81%29.85 "Hg10 mi
6:51 PM68 °FOvercast.9 mph82%29.84 "Hg10 mi
5:51 PM69 °FPartly sunny.13 mph79%29.83 "Hg10 mi
4:51 PM71 °FSunny.10 mph71%29.83 "Hg10 mi
3:51 PM72 °FPassing clouds.14 mph68%29.85 "Hg10 mi
2:51 PM73 °FSunny.13 mph64%29.86 "Hg10 mi
1:51 PM72 °FSunny.5 mph66%29.87 "Hg10 mi
12:51 PM72 °FPassing clouds.9 mph66%29.89 "Hg10 mi
11:51 AM71 °FScattered clouds.7 mph68%29.91 "Hg10 mi
10:51 AM70 °FScattered clouds.7 mph68%29.92 "Hg10 mi
9:51 AM67 °FSunny.No wind63%29.92 "Hg10 mi
8:51 AM63 °FSunny.6 mph63%29.90 "Hg10 mi
7:51 AM59 °FClear.7 mph69%29.88 "Hg10 mi
6:51 AM57 °FClear.6 mph78%29.87 "Hg10 mi
5:51 AM59 °FClear.7 mph72%29.86 "Hg10 mi
4:51 AM59 °FClear.6 mph75%29.85 "Hg10 mi
Weather by CustomWeather, © 2014

See weather overviewHow to use our weather pages